2022年5月23日

时间 代码 天气 温度 能见度 乌云 METAR/SPECI
18:30
V
25 °C 10 km+ - 310°   310° 14 kt METAR LFMU 231630Z AUTO 31014KT 280V340 CAVOK 25/13 Q1007 NOSIG
18:00
V
26 °C 10 km+ - 290°   290° 16 kt METAR LFMU 231600Z AUTO 29016KT CAVOK 26/13 Q1007 BECMG 35012KT
17:30
V
25 °C 10 km+ - 350°   350° 13 kt METAR LFMU 231530Z AUTO 35013KT CAVOK 25/14 Q1007 TEMPO 30015G25KT
17:00
V
25 °C 10 km+ - 330°   330° 10 kt METAR LFMU 231500Z AUTO 33010KT CAVOK 25/14 Q1007 TEMPO 30015G25KT
16:30
V
26 °C 10 km+ - 330°   330° 9 kt METAR LFMU 231430Z AUTO 33009KT CAVOK 26/14 Q1007 TEMPO 30015G25KT
16:00
V
26 °C 10 km+ - 330°   330° 10 kt METAR LFMU 231400Z AUTO 33010KT 300V020 CAVOK 26/14 Q1007 BECMG 30015G25KT
15:30
V
26 °C 10 km+ 4.800 ft 360°   360° 6 kt METAR LFMU 231330Z AUTO 36006KT 330V040 9999 BKN048 OVC056 26/15 Q1007 BECMG 30015G25KT
15:00
V
26 °C 10 km+ 4.900 ft 340°   340° 7 kt METAR LFMU 231300Z AUTO 34007KT 300V050 9999 BKN049 OVC060 26/15 Q1007 BECMG 30015G25KT
14:30
V
25 °C 10 km+ 4.900 ft 340°   340° 5 kt METAR LFMU 231230Z AUTO 34005KT 300V020 9999 SCT042 OVC049 25/16 Q1007 BECMG 30015G25KT
14:00
V
27 °C 10 km+ 4.000 ft 260°   260° 10 kt METAR LFMU 231200Z AUTO 26010KT 230V290 9999 BKN040 OVC070 27/16 Q1007 BECMG 30015G25KT
13:30
V
25 °C 10 km+ 3.700 ft 270°   270° 9 kt METAR LFMU 231130Z AUTO 27009KT 220V300 9999 BKN037 BKN043 BKN056 25/16 Q1008 BECMG 30015G25KT
13:00
V
24 °C 10 km+ - 330°   330° 6 kt METAR LFMU 231100Z AUTO 33006KT 300V010 CAVOK 24/16 Q1008 NOSIG
12:30
V
24 °C 10 km+ 4.800 ft 350°   350° 7 kt METAR LFMU 231030Z AUTO 35007KT 9999 FEW029 OVC048 24/17 Q1008 NOSIG
12:00
V
23 °C 10 km+ 4.400 ft 280°   280° 7 kt METAR LFMU 231000Z AUTO 28007KT 250V330 9999 FEW031 OVC044 23/16 Q1008 NOSIG
11:30
V
22 °C 10 km+ 4.200 ft 280°   280° 9 kt METAR LFMU 230930Z AUTO 28009KT 9999 FEW028 SCT034 OVC042 22/16 Q1008 NOSIG
11:00
M
22 °C 10 km+ 2.500 ft 280°   280° 8 kt METAR LFMU 230900Z AUTO 28008KT 9999 BKN025 OVC033 22/16 Q1008 NOSIG
10:30
V
22 °C 10 km+ 3.000 ft 320°   320° 4 kt METAR LFMU 230830Z AUTO 32004KT 260V360 9999 FEW018 BKN030 BKN038 22/18 Q1008 NOSIG
10:00
V
22 °C 10 km+ 3.600 ft 280°   280° 6 kt METAR LFMU 230800Z AUTO 28006KT 250V310 9999 FEW018 OVC036 22/18 Q1008 NOSIG
09:30
M
21 °C 10 km+ 1.700 ft 290°   290° 7 kt METAR LFMU 230730Z AUTO 29007KT 9999 BKN017 BKN037 OVC047 21/18 Q1008 NOSIG
09:00
V
21 °C 10 km+ 3.000 ft 310°   310° 5 kt METAR LFMU 230700Z AUTO 31005KT 290V350 9999 SCT016 BKN030 OVC048 21/18 Q1008 NOSIG
08:30
M
21 °C 10 km+ 1.700 ft 320°   320° 6 kt METAR LFMU 230630Z AUTO 32006KT 9999 BKN017 BKN022 BKN030 21/18 Q1008 NOSIG
08:00
M
20 °C 10 km+ 1.300 ft 340°   340° 5 kt METAR LFMU 230600Z AUTO 34005KT 9999 BKN013 OVC022 20/18 Q1008 TEMPO 4000 BR BECMG BKN022
07:30
M
20 °C 10 km+ 2.100 ft 280°   280° 4 kt METAR LFMU 230530Z AUTO 28004KT 9999 FEW013 BKN021 OVC034 20/18 Q1008 TEMPO 4000 BR OVC005
07:00
V
20 °C 10 km+ 3.400 ft 350°   350° 4 kt METAR LFMU 230500Z AUTO 35004KT 9999 FEW013 BKN034 OVC052 20/18 Q1008 TEMPO 4000 BR OVC005
06:30
V
19 °C 10 km+ - 360°   360° 5 kt METAR LFMU 230430Z AUTO 36005KT CAVOK 19/17 Q1008 TEMPO 4000 BR OVC005
06:00
V
20 °C 10 km+ 3.000 ft 010°   010° 4 kt METAR LFMU 230400Z AUTO 01004KT 9999 SCT019 OVC030 20/17 Q1008 TEMPO 4000 BR OVC005
05:30
M
20 °C 10 km+ 1.700 ft 350°   350° 7 kt METAR LFMU 230330Z AUTO 35007KT 320V020 9999 OVC017 20/17 Q1008 TEMPO 4000 BR OVC005
05:00
M
19 °C 10 km+ 1.600 ft 310°   310° 8 kt METAR LFMU 230300Z AUTO 31008KT 9999 BKN016 BKN025 19/17 Q1008
04:30
M
19 °C 10 km+ 2.400 ft 330°   330° 5 kt METAR LFMU 230230Z AUTO 33005KT 9999 BKN024 19/17 Q1008
04:00
M
19 °C 10 km+ 2.200 ft 350°   350° 4 kt METAR LFMU 230200Z AUTO 35004KT 320V020 9999 BKN022 OVC160 19/17 Q1009
03:30
V
19 °C 10 km+ 17.000 ft 020°   020° 5 kt METAR LFMU 230130Z AUTO 02005KT 9999 FEW021 OVC170 19/17 Q1008
03:00
V
19 °C 10 km+ 17.000 ft 040°   040° 7 kt METAR LFMU 230100Z AUTO 04007KT 9999 FEW019 BKN170 BKN190 19/17 Q1008
02:30
M
20 °C 10 km+ 1.700 ft 050°   050° 9 kt METAR LFMU 230030Z AUTO 05009KT 9999 BKN017 20/17 Q1008
02:00
M
20 °C 10 km+ 1.600 ft 010°   010° 7 kt METAR LFMU 230000Z AUTO 01007KT 9999 OVC016 20/17 Q1009
01:30
M
20 °C 10 km+ 1.400 ft 320°   320° 5 kt METAR LFMU 222330Z AUTO 32005KT 310V010 9999 OVC014 20/17 Q1010
01:00
M
20 °C 10 km+ 1.200 ft 060°   060° 2 kt METAR LFMU 222300Z AUTO 06002KT 9999 OVC012 20/17 Q1009
00:30
M
20 °C 10 km+ 1.300 ft 090°   090° 4 kt METAR LFMU 222230Z AUTO 09004KT 050V120 9999 OVC013 20/17 Q1009
00:00
M
20 °C 10 km+ 1.300 ft 060°   060° 6 kt METAR LFMU 222200Z AUTO 06006KT 9999 OVC013 20/17 Q1009

2022年5月22日

时间 代码 天气 温度 能见度 乌云 METAR/SPECI
23:30
M
20 °C 10 km+ 1.300 ft 070°   070° 7 kt METAR LFMU 222130Z AUTO 07007KT 9999 OVC013 20/17 Q1009
23:00
M
20 °C 10 km+ 1.100 ft 090°   090° 7 kt METAR LFMU 222100Z AUTO 09007KT 9999 OVC011 20/18 Q1010
22:30
M
20 °C 10 km+ 1.100 ft 050°   050° 5 kt METAR LFMU 222030Z AUTO 05005KT 9999 OVC011 20/18 Q1009 TEMPO 4000 BR BKN008
22:00
M
20 °C 10 km+ 1.100 ft 060°   060° 4 kt METAR LFMU 222000Z AUTO 06004KT 040V100 9999 BKN011 OVC160 20/18 Q1009 TEMPO 4000 BR BKN008
21:30
V
20 °C 10 km+ 17.000 ft 080°   080° 6 kt METAR LFMU 221930Z AUTO 08006KT 9999 SCT012 BKN170 20/18 Q1009 TEMPO 4000 BR BKN008 BECMG 02012KT
21:00
V
21 °C 10 km+ 16.000 ft 090°   090° 7 kt METAR LFMU 221900Z AUTO 09007KT 9999 FEW011 BKN160 21/18 Q1009 TEMPO 4000 BR BKN008
20:30
M
21 °C 10 km+ 1.000 ft 130°   130° 6 kt METAR LFMU 221830Z AUTO 13006KT 090V200 9999 BKN010 BKN170 BKN190 21/18 Q1009 TEMPO 4000 BR
20:00
V
21 °C 10 km+ 19.000 ft 160°   160° 6 kt METAR LFMU 221800Z AUTO 16006KT 120V200 9999 SCT012 BKN190 21/18 Q1009 TEMPO 4000 BR BKN008
19:30
V
21 °C 10 km+ - 130°   130° 6 kt METAR LFMU 221730Z AUTO 13006KT 090V210 9999 FEW013 SCT190 21/18 Q1009 TEMPO 4000 BR BKN008
19:00
V
22 °C 10 km+ - 100°   100° 11 kt METAR LFMU 221700Z AUTO 10011KT 070V130 CAVOK 22/18 Q1008 TEMPO 4000 BR BKN008
18:30
V
22 °C 10 km+ - 170°   170° 6 kt METAR LFMU 221630Z AUTO 17006KT 130V190 CAVOK 22/18 Q1010 TEMPO 4000 BR BKN008
18:00
V
23 °C 10 km+ - 160°   160° 7 kt METAR LFMU 221600Z AUTO 16007KT 120V190 CAVOK 23/18 Q1009 TEMPO 4000 BR BKN008
17:30
V
24 °C 10 km+ - 100°   100° 8 kt METAR LFMU 221530Z AUTO 10008KT 070V160 CAVOK 24/18 Q1009 TEMPO 4000 BR BKN008
17:00
V
25 °C 10 km+ - 090°   090° 10 kt METAR LFMU 221500Z AUTO 09010KT 060V130 CAVOK 25/18 Q1009 NOSIG
16:30
V
25 °C 10 km+ - 090°   090° 11 kt METAR LFMU 221430Z AUTO 09011KT 060V120 CAVOK 25/19 Q1010 NOSIG
16:00
V
25 °C 10 km+ - 100°   100° 11 kt METAR LFMU 221400Z AUTO 10011KT 070V130 CAVOK 25/19 Q1010 NOSIG
15:30
V
25 °C 10 km+ - 080°   080° 10 kt METAR LFMU 221330Z AUTO 08010KT CAVOK 25/19 Q1010 NOSIG
15:00
V
26 °C 10 km+ - 090°   090° 11 kt METAR LFMU 221300Z AUTO 09011KT 060V120 CAVOK 26/19 Q1010 NOSIG
14:30
V
26 °C 10 km+ - 080°   080° 9 kt METAR LFMU 221230Z AUTO 08009KT 020V120 CAVOK 26/19 Q1011 NOSIG
14:00
V
26 °C 10 km+ - 080°   080° 7 kt METAR LFMU 221200Z AUTO 08007KT 030V140 CAVOK 26/19 Q1011 NOSIG
13:30
V
26 °C 10 km+ - 080°   080° 8 kt METAR LFMU 221130Z AUTO 08008KT 040V130 9999 FEW023 26/19 Q1012 NOSIG
13:00
V
25 °C 10 km+ - 090°   090° 9 kt METAR LFMU 221100Z AUTO 09009KT 050V120 9999 FEW023 25/18 Q1012 NOSIG
12:30
M
25 °C 10 km+ 2.400 ft 100°   100° 7 kt METAR LFMU 221030Z AUTO 10007KT 060V130 9999 BKN024 25/18 Q1012 NOSIG
12:00
M
24 °C 10 km+ 2.200 ft 100°   100° 5 kt METAR LFMU 221000Z AUTO 10005KT 050V170 9999 BKN022 24/18 Q1012 NOSIG
11:30
M
24 °C 10 km+ 1.900 ft 100°   100° 7 kt METAR LFMU 220930Z AUTO 10007KT 060V130 9999 BKN019 24/19 Q1012 NOSIG
11:00
M
23 °C 10 km+ 1.700 ft 070°   070° 9 kt METAR LFMU 220900Z AUTO 07009KT 040V110 9999 BKN017 23/18 Q1012 NOSIG
10:30
I
23 °C 3,8 km 1.400 ft 050°   050° 8 kt METAR LFMU 220830Z AUTO 05008KT 020V090 9999 3800 BKN014 23/19 Q1013 BECMG FEW009
10:00
V
22 °C 9 km - 050°   050° 8 kt METAR LFMU 220800Z AUTO 05008KT 9000 FEW012 22/18 Q1013 NOSIG
09:30
M
20 °C 10 km+ 1.300 ft 040°   040° 4 kt METAR LFMU 220730Z AUTO 04004KT 010V090 9999 BKN013 20/19 Q1013 BECMG FEW009
09:00
M
20 °C 10 km+ 1.100 ft Var   Var 3 kt METAR LFMU 220700Z AUTO VRB03KT 9999 BKN011 20/18 Q1014 TEMPO 4000 BR BECMG FEW009
08:30
V
19 °C 10 km+ - Var   Var 2 kt METAR LFMU 220630Z AUTO VRB02KT CAVOK 19/18 Q1013 TEMPO 4000 BR BKN008
08:00
V
18 °C 10 km+ - Var   Var 1 kt METAR LFMU 220600Z AUTO VRB01KT CAVOK 18/17 Q1013 TEMPO 4000 BR BKN008
07:30
V
17 °C 10 km+ - 090°   090° 1 kt METAR LFMU 220530Z AUTO 09001KT CAVOK 17/16 Q1013 TEMPO 4000 BR BKN008
07:00
V
17 °C 8 km - 060°   060° 3 kt METAR LFMU 220500Z AUTO 06003KT 8000 NSC 17/16 Q1013 TEMPO 4000 BR BKN008
06:30
V
17 °C 8 km - 050°   050° 3 kt METAR LFMU 220430Z AUTO 05003KT 020V080 8000 NSC 17/16 Q1013 TEMPO 4000 BR BKN008
06:00
V
17 °C 8 km - 030°   030° 3 kt METAR LFMU 220400Z AUTO 03003KT 8000 NSC 17/16 Q1013 TEMPO 4000 BR BKN008
05:30
M
17 °C 7 km - 360°   360° 4 kt METAR LFMU 220330Z AUTO 36004KT 7000 NSC 17/16 Q1013 TEMPO 4000 BR BKN008
05:00
V
16 °C 8 km - 350°   350° 4 kt METAR LFMU 220300Z AUTO 35004KT 8000 FEW007 16/16 Q1014
04:30
V
17 °C 8 km - 360°   360° 5 kt METAR LFMU 220230Z AUTO 36005KT 8000 SCT007 17/16 Q1014
04:00
V
17 °C 9 km - 350°   350° 6 kt METAR LFMU 220200Z AUTO 35006KT 9000 FEW010 17/16 Q1014
03:30
M
17 °C 9 km 1.000 ft 360°   360° 6 kt METAR LFMU 220130Z AUTO 36006KT 9000 OVC010 17/17 Q1014
03:00
I
17 °C 10 km+ 800 ft 310°   310° 3 kt METAR LFMU 220100Z AUTO 31003KT 9999 OVC008 17/17 Q1015
02:30
V
17 °C 9 km - 280°   280° 4 kt METAR LFMU 220030Z AUTO 28004KT 9000 SCT008 17/16 Q1015
02:00
V
17 °C 10 km+ - 310°   310° 2 kt METAR LFMU 220000Z AUTO 31002KT CAVOK 17/16 Q1015
01:30
V
17 °C 10 km+ - 360°   360° 3 kt METAR LFMU 212330Z AUTO 36003KT CAVOK 17/16 Q1015
01:00
V
17 °C 10 km+ - Var   Var 2 kt METAR LFMU 212300Z AUTO VRB02KT CAVOK 17/16 Q1016
00:30
V
17 °C 10 km+ - Var   000° 0 kt METAR LFMU 212230Z AUTO 00000KT CAVOK 17/16 Q1016
00:00
V
18 °C 10 km+ - Var   Var 3 kt METAR LFMU 212200Z AUTO VRB03KT CAVOK 18/16 Q1016

2022年5月21日

时间 代码 天气 温度 能见度 乌云 METAR/SPECI
23:30
V
18 °C 10 km+ - 040°   040° 2 kt METAR LFMU 212130Z AUTO 04002KT CAVOK 18/16 Q1016
23:00
V
19 °C 10 km+ - 060°   060° 3 kt METAR LFMU 212100Z AUTO 06003KT CAVOK 19/17 Q1017
22:30
V
19 °C 10 km+ - 100°   100° 3 kt METAR LFMU 212030Z AUTO 10003KT CAVOK 19/17 Q1017 TEMPO 4000 BR BKN008
22:00
V
20 °C 10 km+ - 080°   080° 3 kt METAR LFMU 212000Z AUTO 08003KT CAVOK 20/17 Q1017 TEMPO 4000 BR BKN008
21:30
V
20 °C 10 km+ - Var   Var 2 kt METAR LFMU 211930Z AUTO VRB02KT CAVOK 20/18 Q1017 TEMPO 4000 BR BKN008
21:00
V
21 °C 10 km+ - Var   Var 3 kt METAR LFMU 211900Z AUTO VRB03KT CAVOK 21/18 Q1017 NOSIG
20:30
V
21 °C 10 km+ - 160°   160° 3 kt METAR LFMU 211830Z AUTO 16003KT 130V190 CAVOK 21/18 Q1017 NOSIG
20:00
V
22 °C 10 km+ - 150°   150° 4 kt METAR LFMU 211800Z AUTO 15004KT 120V180 CAVOK 22/18 Q1017 NOSIG
19:30
V
22 °C 10 km+ - 170°   170° 5 kt METAR LFMU 211730Z AUTO 17005KT 120V210 CAVOK 22/18 Q1017 NOSIG
19:00
V
23 °C 10 km+ - 170°   170° 5 kt METAR LFMU 211700Z AUTO 17005KT 130V200 CAVOK 23/18 Q1017 NOSIG
18:30
V
23 °C 10 km+ - 170°   170° 7 kt METAR LFMU 211630Z AUTO 17007KT 130V220 CAVOK 23/18 Q1017 NOSIG
18:00
V
24 °C 10 km+ - 190°   190° 7 kt METAR LFMU 211600Z AUTO 19007KT CAVOK 24/18 Q1017 NOSIG
17:30
V
24 °C 10 km+ - 190°   190° 7 kt METAR LFMU 211530Z AUTO 19007KT 140V240 CAVOK 24/18 Q1017 NOSIG
17:00
V
24 °C 10 km+ - 170°   170° 7 kt METAR LFMU 211500Z AUTO 17007KT 140V200 CAVOK 24/19 Q1018 NOSIG
较旧的数据

下载我们的应用程序

在您的手机和平板电脑上轻松访问所有航空天气。
有许多网站上没有的功能,如离线支持和个人机场列表。

Studio Eveline

Benalmádena
España

我们和第三方通过cookies跟踪您在我们网站上的上网行为。如果您继续,我们认为您同意我们的cookie政策。 了解更多